Location: Kellogg
(38.0159°N, 90.0546°W)
Time: 11:25:13
(UTC+00:00)

A-11 Canister half - Visible Passes

Search period start: 07 September 2024 00:00
Search period end: 17 September 2024 00:00
Orbit: 1515 x 1684 km, 47.2° (Epoch: 06 September)

Date Brightness Start Highest point End Pass type
(mag) Time Alt. Az. Time Alt. Az. Time Alt. Az.
07 Sep 9.0 01:40:58 10° SSW 01:49:57 54° SE 01:58:50 10° ENE visible
07 Sep 9.1 03:45:33 10° WSW 03:54:46 65° NNW 03:59:15 34° NE visible
07 Sep 10.0 05:52:03 10° WNW 06:04:52 32° NE 06:09:56 10° ENE visible
07 Sep 9.0 08:03:15 42° NW 08:06:57 73° NNE 08:16:30 10° ESE visible
07 Sep 9.2 10:02:51 10° WNW 10:11:33 45° SW 10:20:31 10° SSE visible
08 Sep 9.1 01:18:06 10° SSW 01:27:01 51° SE 01:35:49 10° ENE visible
08 Sep 9.1 03:22:30 10° WSW 03:31:45 67° NNW 03:37:31 26° NE visible
08 Sep 9.8 05:28:59 10° WNW 05:45:29 15° ENE 05:46:51 10° ENE visible
08 Sep 9.0 07:43:52 70° NNE 07:43:56 70° NNE 07:53:26 10° ESE visible
08 Sep 9.1 09:42:16 20° WNW 09:48:37 48° SW 09:57:41 10° SSE visible
09 Sep 9.2 00:55:16 10° SSW 01:04:06 48° SE 01:12:48 10° ENE visible
09 Sep 9.1 02:59:27 10° WSW 03:08:44 70° NNW 03:15:36 20° NE visible
09 Sep 9.6 05:05:55 10° WNW 05:26:07 - ENE 05:13:46 46° NNW visible
09 Sep 9.7 07:11:40 10° WNW 07:24:30 42° E 07:30:22 10° ESE visible
09 Sep 9.0 09:22:54 40° W 09:25:41 51° SW 09:34:49 10° SSE visible
10 Sep 9.3 00:32:26 10° SSW 00:41:10 45° SE 00:49:46 10° ENE visible
10 Sep 9.1 02:36:24 10° WSW 02:45:44 72° NNW 02:53:36 16° ENE visible
10 Sep 9.5 04:42:51 10° WNW 04:51:44 48° N 04:51:46 48° N visible
10 Sep 10.6 06:48:41 10° WNW 07:05:03 19° E 07:07:17 10° ESE visible
10 Sep 9.0 09:03:25 53° SSW 09:03:25 53° SSW 09:11:56 10° SSE visible
10 Sep 10.3 11:02:44 10° W 11:06:09 12° WSW 11:09:36 10° SW visible
11 Sep 9.0 02:13:21 10° WSW 02:22:43 75° NNW 02:31:33 12° ENE visible
11 Sep 9.5 04:19:46 10° WNW 04:28:40 48° N 04:29:43 47° NNE visible
11 Sep 10.6 06:25:41 10° WNW 06:45:25 - ESE 06:27:53 19° NW visible
11 Sep 9.7 08:43:46 36° SSE 08:43:46 36° SSE 08:49:02 10° SSE visible
11 Sep 10.2 10:42:08 14° WSW 10:43:16 14° WSW 10:47:33 10° SSW visible
12 Sep 9.0 01:50:19 10° WSW 01:59:43 78° NNW 02:09:00 10° ENE visible
12 Sep 9.5 03:56:41 10° WNW 04:05:36 49° N 04:07:40 43° NNE visible
12 Sep 10.4 06:02:41 10° WNW 06:05:49 24° NW 06:05:49 24° NW visible
12 Sep 10.4 08:23:56 19° SSE 08:23:56 19° SSE 08:26:09 10° SE visible
12 Sep 10.3 10:22:17 14° SW 10:22:17 14° SW 10:25:20 10° SSW visible
13 Sep 9.0 01:27:17 10° WSW 01:36:43 81° NNW 01:46:01 10° ENE visible
13 Sep 9.5 03:33:37 10° W 03:42:33 49° N 03:45:35 38° NE visible
13 Sep 10.2 05:39:40 10° WNW 05:43:44 29° NW 05:43:44 29° NW visible
13 Sep11.108:03:54SE08:03:54SE07:41:54WNWvisible
13 Sep 10.6 10:02:14 12° SSW 10:02:14 12° SSW 10:03:00 10° SSW visible
14 Sep 9.0 01:04:16 10° WSW 01:13:43 85° NNW 01:23:02 10° ENE visible
14 Sep 9.5 03:10:31 10° W 03:19:29 50° N 03:23:30 32° NE visible
14 Sep 10.0 05:16:39 10° WNW 05:21:40 35° NW 05:21:40 35° NW visible
15 Sep 9.0 00:41:14 10° WSW 00:50:44 88° NNW 01:00:03 10° ENE visible
15 Sep 9.5 02:47:25 10° W 02:56:25 50° N 03:01:25 27° NE visible
15 Sep 9.8 04:53:39 10° WNW 04:59:34 40° NW 04:59:34 40° NW visible
16 Sep 9.1 00:18:14 10° SW 00:27:45 88° SE 00:37:04 10° ENE visible
16 Sep 9.5 02:24:19 10° W 02:33:22 51° N 02:39:20 22° NE visible
16 Sep 9.6 04:30:37 10° WNW 04:37:30 46° NNW 04:37:30 46° NNW visible
